When you browse on this site, cookies collect data to enhance your experience and personalize the content and advertising you see.
Visit our Privacy Policy to learn more. By continuing to use the site, you agree to this use of cookies and data.
  • In Deutschland
  • Länderverzeichnis
  • Für 7 Tage
  • Wassertemperatur
  • Wetterkarte
  • Widgets
  • user-avatar
    Anmelden

    Stündliche Wetter Pinsk

    Heute, 25 August, Sonntag

    Zeit Temperatur Niederschläge Wind Luftdruck Luftfeuchtigkeit
    00:00 +15°C° 0 mm 1 m/S 757 mmHg 78%
    01:00 +15°C° 0 mm 1 m/S 757 mmHg 80%
    02:00 +15°C° 0 mm 1 m/S 757 mmHg 83%
    03:00 +14°C° 0 mm 1 m/S 757 mmHg 84%
    04:00 +14°C° 0 mm 1 m/S 757 mmHg 85%
    05:00 +14°C° 0 mm 1 m/S 757 mmHg 86%
    06:00 +15°C° 0 mm 1 m/S 757 mmHg 82%
    07:00 +17°C° 0 mm 2 m/S 757 mmHg 78%
    08:00 +18°C° 0 mm 2 m/S 758 mmHg 73%
    09:00 +20°C° 0 mm 2 m/S 758 mmHg 67%
    10:00 +23°C° 0 mm 2 m/S 758 mmHg 62%
    11:00 +24°C° 0 mm 2 m/S 758 mmHg 57%
    12:00 +25°C° 0 mm 2 m/S 758 mmHg 54%
    13:00 +26°C° 0 mm 2 m/S 758 mmHg 51%
    14:00 +26°C° 0 mm 2 m/S 757 mmHg 48%
    15:00 +26°C° 0 mm 2 m/S 757 mmHg 52%
    16:00 +26°C° 0 mm 2 m/S 757 mmHg 55%
    17:00 +25°C° 0 mm 2 m/S 757 mmHg 59%
    18:00 +24°C° 0 mm 2 m/S 757 mmHg 64%
    19:00 +21°C° 0 mm 2 m/S 757 mmHg 69%
    20:00 +19°C° 0 mm 2 m/S 757 mmHg 75%
    21:00 +18°C° 0 mm 2 m/S 757 mmHg 77%
    22:00 +18°C° 0 mm 2 m/S 757 mmHg 79%
    23:00 +17°C° 0 mm 2 m/S 757 mmHg 82%

    Morgen, 26 August, Montag

    Zeit Temperatur Niederschläge Wind Luftdruck Luftfeuchtigkeit
    00:00 +16°C° 0 mm 2 m/S 757 mmHg 83%
    01:00 +16°C° 0 mm 2 m/S 757 mmHg 85%
    02:00 +16°C° 0 mm 2 m/S 758 mmHg 86%
    03:00 +15°C° 0 mm 2 m/S 757 mmHg 87%
    04:00 +15°C° 0 mm 2 m/S 757 mmHg 87%
    05:00 +15°C° 0 mm 2 m/S 757 mmHg 88%
    06:00 +16°C° 0 mm 2 m/S 757 mmHg 85%
    07:00 +18°C° 0 mm 2 m/S 757 mmHg 81%
    08:00 +19°C° 0 mm 3 m/S 757 mmHg 78%
    09:00 +21°C° 0 mm 3 m/S 757 mmHg 72%
    10:00 +24°C° 0 mm 3 m/S 757 mmHg 66%
    11:00 +26°C° 0 mm 3 m/S 757 mmHg 60%
    12:00 +26°C° 0 mm 3 m/S 757 mmHg 57%
    13:00 +27°C° 0 mm 3 m/S 757 mmHg 54%
    14:00 +28°C° 0 mm 3 m/S 757 mmHg 51%
    15:00 +28°C° 0 mm 3 m/S 756 mmHg 54%
    16:00 +28°C° 0 mm 2 m/S 756 mmHg 56%
    17:00 +27°C° 0 mm 2 m/S 756 mmHg 59%
    18:00 +25°C° 0 mm 2 m/S 756 mmHg 65%
    19:00 +23°C° 0 mm 2 m/S 756 mmHg 71%
    20:00 +20°C° 0 mm 2 m/S 756 mmHg 77%
    21:00 +20°C° 0 mm 2 m/S 756 mmHg 79%
    22:00 +19°C° 0 mm 2 m/S 756 mmHg 81%
    23:00 +18°C° 0 mm 2 m/S 756 mmHg 83%

    übermorgen, 27 August, Dienstag

    Zeit Temperatur Niederschläge Wind Luftdruck Luftfeuchtigkeit
    00:00 +18°C° 0 mm 2 m/S 756 mmHg 85%
    01:00 +17°C° 0 mm 2 m/S 756 mmHg 86%
    02:00 +17°C° 0 mm 2 m/S 756 mmHg 88%
    03:00 +17°C° 0 mm 2 m/S 756 mmHg 89%
    04:00 +16°C° 0 mm 2 m/S 756 mmHg 89%
    05:00 +16°C° 0 mm 2 m/S 756 mmHg 90%
    06:00 +18°C° 0 mm 2 m/S 756 mmHg 86%
    07:00 +19°C° 0 mm 2 m/S 756 mmHg 81%
    08:00 +20°C° 0 mm 2 m/S 756 mmHg 77%
    09:00 +23°C° 0 mm 2 m/S 756 mmHg 71%
    10:00 +25°C° 0 mm 2 m/S 756 mmHg 65%
    11:00 +26°C° 0 mm 2 m/S 756 mmHg 59%
    12:00 +27°C° 0 mm 2 m/S 756 mmHg 56%
    13:00 +27°C° 0 mm 2 m/S 756 mmHg 54%
    14:00 +28°C° 0 mm 2 m/S 756 mmHg 51%
    15:00 +28°C° 0 mm 2 m/S 756 mmHg 54%
    16:00 +27°C° 0 mm 2 m/S 756 mmHg 57%
    17:00 +27°C° 0 mm 2 m/S 755 mmHg 60%
    18:00 +25°C° 0 mm 2 m/S 755 mmHg 66%
    19:00 +23°C° 0 mm 2 m/S 755 mmHg 72%
    20:00 +20°C° 0 mm 2 m/S 755 mmHg 78%
    21:00 +20°C° 0 mm 2 m/S 755 mmHg 79%
    22:00 +19°C° 0 mm 2 m/S 755 mmHg 80%
    23:00 +19°C° 0 mm 2 m/S 756 mmHg 81%

    28 August, Mittwoch

    Zeit Temperatur Niederschläge Wind Luftdruck Luftfeuchtigkeit
    00:00 +18°C° 0 mm 2 m/S 756 mmHg 83%
    01:00 +18°C° 0 mm 2 m/S 756 mmHg 86%
    02:00 +18°C° 0 mm 1 m/S 756 mmHg 88%
    03:00 +17°C° 0 mm 2 m/S 755 mmHg 90%
    04:00 +17°C° 0 mm 2 m/S 755 mmHg 91%
    05:00 +16°C° 0 mm 2 m/S 755 mmHg 92%
    06:00 +18°C° 0 mm 2 m/S 755 mmHg 89%
    07:00 +19°C° 0 mm 2 m/S 756 mmHg 85%
    08:00 +20°C° 0 mm 2 m/S 756 mmHg 81%
    09:00 +22°C° 0 mm 3 m/S 756 mmHg 75%
    10:00 +24°C° 0 mm 3 m/S 756 mmHg 69%
    11:00 +26°C° 0 mm 3 m/S 756 mmHg 63%
    12:00 +26°C° 0 mm 3 m/S 755 mmHg 61%
    13:00 +27°C° 0 mm 4 m/S 755 mmHg 59%
    14:00 +27°C° 0 mm 4 m/S 755 mmHg 57%
    15:00 +27°C° 0 mm 4 m/S 755 mmHg 59%
    16:00 +26°C° 0 mm 4 m/S 754 mmHg 61%
    17:00 +26°C° 0 mm 4 m/S 754 mmHg 63%
    18:00 +23°C° 0 mm 4 m/S 754 mmHg 66%
    19:00 +21°C° 0 mm 4 m/S 754 mmHg 68%
    20:00 +19°C° 0 mm 4 m/S 754 mmHg 70%
    21:00 +18°C° 0 mm 4 m/S 754 mmHg 71%
    22:00 +18°C° 0 mm 4 m/S 755 mmHg 71%
    23:00 +17°C° 0 mm 3 m/S 755 mmHg 72%

    29 August, Donnerstag

    Zeit Temperatur Niederschläge Wind Luftdruck Luftfeuchtigkeit
    00:00 +16°C° 0 mm 3 m/S 755 mmHg 75%
    01:00 +16°C° 0 mm 3 m/S 755 mmHg 79%
    02:00 +14°C° 0 mm 3 m/S 755 mmHg 82%
    03:00 +13°C° 0 mm 3 m/S 755 mmHg 85%
    04:00 +13°C° 0 mm 3 m/S 755 mmHg 88%
    05:00 +12°C° 0 mm 3 m/S 755 mmHg 90%
    06:00 +14°C° 0 mm 3 m/S 755 mmHg 86%
    07:00 +15°C° 0 mm 4 m/S 755 mmHg 82%
    08:00 +17°C° 0 mm 4 m/S 755 mmHg 78%
    09:00 +19°C° 0 mm 4 m/S 755 mmHg 72%
    10:00 +20°C° 0 mm 4 m/S 755 mmHg 67%
    11:00 +22°C° 0 mm 5 m/S 755 mmHg 61%
    12:00 +23°C° 0 mm 5 m/S 755 mmHg 59%
    13:00 +25°C° 0 mm 5 m/S 755 mmHg 56%
    14:00 +25°C° 0 mm 5 m/S 754 mmHg 54%
    15:00 +25°C° 0 mm 5 m/S 754 mmHg 56%
    16:00 +23°C° 0 mm 4 m/S 754 mmHg 58%
    17:00 +23°C° 0 mm 4 m/S 754 mmHg 60%
    18:00 +21°C° 0 mm 4 m/S 754 mmHg 62%
    19:00 +19°C° 0 mm 4 m/S 754 mmHg 64%
    20:00 +17°C° 0 mm 4 m/S 754 mmHg 66%
    21:00 +15°C° 0 mm 4 m/S 754 mmHg 65%
    22:00 +15°C° 0 mm 4 m/S 754 mmHg 64%
    23:00 +14°C° 0 mm 3 m/S 754 mmHg 63%

    30 August, Freitag

    Zeit Temperatur Niederschläge Wind Luftdruck Luftfeuchtigkeit
    00:00 +13°C° 0 mm 3 m/S 754 mmHg 64%
    01:00 +12°C° 0 mm 3 m/S 754 mmHg 64%
    02:00 +12°C° 0 mm 3 m/S 754 mmHg 65%
    03:00 +11°C° 0 mm 3 m/S 754 mmHg 66%
    04:00 +11°C° 0 mm 3 m/S 754 mmHg 67%
    05:00 +10°C° 0 mm 3 m/S 754 mmHg 69%
    06:00 +12°C° 0 mm 3 m/S 754 mmHg 66%
    07:00 +13°C° 0 mm 3 m/S 754 mmHg 63%
    08:00 +14°C° 0 mm 4 m/S 754 mmHg 61%
    09:00 +17°C° 0 mm 4 m/S 755 mmHg 57%
    10:00 +19°C° 0 mm 4 m/S 755 mmHg 53%
    11:00 +21°C° 0 mm 4 m/S 755 mmHg 49%
    12:00 +22°C° 0 mm 4 m/S 755 mmHg 46%
    13:00 +24°C° 0 mm 3 m/S 755 mmHg 44%
    14:00 +25°C° 0 mm 3 m/S 755 mmHg 41%
    15:00 +25°C° 0 mm 3 m/S 755 mmHg 45%
    16:00 +24°C° 0 mm 3 m/S 755 mmHg 49%
    17:00 +24°C° 0 mm 2 m/S 755 mmHg 52%
    18:00 +21°C° 0 mm 2 m/S 755 mmHg 56%
    19:00 +19°C° 0 mm 2 m/S 755 mmHg 61%
    20:00 +17°C° 0 mm 3 m/S 755 mmHg 65%
    21:00 +16°C° 0 mm 2 m/S 755 mmHg 66%
    22:00 +16°C° 0 mm 2 m/S 756 mmHg 66%
    23:00 +15°C° 0 mm 2 m/S 756 mmHg 67%
    Mehr zeigen